Location: Andrest
(43.3200°N, 0.0641°E)
Time: 05:40:23
(UTC+00:00)

SL-8 Rocket - Pass Details

Date: 26 April 2021
Orbit: 958 x 989 km, 82.9° (Epoch: 11 May)

Event Time Altitude Azimuth Distance (km) Brightness Sun altitude
Rises 02:26:03 0° 333° (NNW) 3,702 7.3 -23.8°
Reaches altitude 10° 02:30:00 10° 309° (NW) 2,752 6.3 -23.3°
Enters shadow 02:32:25 13° 286° (WNW) 2,507 5.9 -23.0°
